Regional Weather Roundup
Issued by NWS Upton, NY

Current Version | Previous Version | Graphics & Text | Print | Product List | Glossary Off
Versions: 1 2 3 4 5 6 7 8 9 10 11 12 13 14 15 16 17 18 19 20 21 22 23 24 25 26 27 28 29 30 31 32 33 34 35 36 37 38 39 40 41 42 43 44 45 46 47 48 49 50

952
ASUS41 KOKX 161908
RWROKX

REGIONAL WEATHER ROUNDUP
NATIONAL WEATHER SERVICE NEW YORK NY
200 PM EST MON JAN 16 2017

NOTE: "FAIR" INDICATES FEW OR NO CLOUDS BELOW 12,000 FEET WITH NO
SIGNIFICANT WEATHER AND/OR OBSTRUCTIONS TO VISIBILITY.

NYZ071-072-176-178-NJZ106-104-162000-
NEW YORK CITY METRO AREA

CITY           SKY/WX    TMP DP  RH WIND       PRES   REMARKS
Central Park   SUNNY     41  21  44 VRB3      30.39F
Wall St Helipt CLEAR     45  25  45 SW6       30.38F
Bronx Bot Gard NOT AVBL
LaGuardia APRT PTSUNNY   43  22  43 SW7       30.37F
Kennedy INTL   PTSUNNY   42  21  43 S10       30.39F
Breezy Point     N/A     37 N/A N/A SW7         N/A  WCI  32
Newark/Liberty PTSUNNY   43  21  41 W6        30.37F
Teterboro      SUNNY     43  21  41 SW5       30.36F
$$

NYZ177-179-078>081-162000-
LONG ISLAND NEW YORK

CITY           SKY/WX    TMP DP  RH WIND       PRES   REMARKS
Jones Beach      N/A     37 N/A N/A SW7         N/A  WCI  32
Matinecock PT    N/A     37 N/A N/A SW9         N/A  WCI  31
Farmingdale    SUNNY     41  22  46 SW9       30.37F
MacArthur/ISP  PTSUNNY   40  22  48 S7        30.36F
Shirley        SUNNY     40  23  50 VRB7      30.38F
Westhampton    SUNNY     40  22  48 SW10      30.39F WCI  33
Southampton    NOT AVBL
Bridgehampton  NOT AVBL
East Hampton     N/A     40  20  46 W6        30.36F
Montauk          N/A     39  24  55 VRB7      30.37F WCI  34
$$

NYZ052-065-067-162000-
HUDSON VALLEY

CITY           SKY/WX    TMP DP  RH WIND       PRES   REMARKS
White Plains   SUNNY     40  19  43 W5        30.34F
Newburgh       MOSUNNY   39  23  52 SW14      30.34F WCI  31
Montgomery     SUNNY     42  23  46 SW7       30.31F
Poughkeepsie   SUNNY     38  19  46 SW6       30.33F WCI  33
Albany         MOSUNNY   37  18  46 S10       30.31F WCI  30
$$

NJZ001-105-106-008-010-013-015-019>022-104-162000-
NEW JERSEY

CITY           SKY/WX    TMP DP  RH WIND       PRES   REMARKS
Newark/Liberty PTSUNNY   43  21  41 W6        30.37F
Teterboro      SUNNY     43  21  41 SW5       30.36F
Caldwell       SUNNY     41  20  43 CALM      30.36F
Somerville     SUNNY     43  20  39 VRB5      30.36F
Linden           N/A     42  20  40 W6        30.38F
Sussex         SUNNY     40  22  48 S6        30.33F
Andover          N/A     40  21  46 SW5       30.33F
Trenton        SUNNY     42  22  44 W6        30.38F
Millville      MOSUNNY   40  27  59 W6        30.40F
Atlantic City  SUNNY     45  19  35 N3        30.39F
Wrightstown    SUNNY     44  21  40 VRB5      30.36F
Toms River     SUNNY     45  19  35 CALM      30.39F
Belmar         SUNNY     44  21  40 VRB3      30.38F
$$

PAZ047>061-062-071-162000-
EASTERN PENNSYLVANIA

CITY           SKY/WX    TMP DP  RH WIND       PRES   REMARKS
Philadelphia   PTSUNNY   41  22  46 SW6       30.40F
Allentown      SUNNY     40  22  48 CALM      30.37F
Scranton       CLOUDY    36  23  59 SW7       30.32F WCI  30
$$

CTZ002-004>006-009-010-012-RIZ004-006-007-MAZ004-011-015-162000-
SOUTHERN NEW ENGLAND
 IN CT

CITY           SKY/WX    TMP DP  RH WIND       PRES   REMARKS
Bradley INTL   PTSUNNY   40  18  41 S6        30.32F
Hartford       SUNNY     40  19  43 SW6       30.34F
Danbury        SUNNY     39  19  44 SW7       30.34F WCI  34
Wtrbury/Oxford MOSUNNY   39  18  41 W7        30.33F WCI  34
Bridgeport     SUNNY     39  24  55 SW14      30.37F WCI  31
Meriden        SUNNY     42  18  37 SW7       30.34F
New Haven      PTSUNNY   36  23  59 S10       30.36F WCI  28
Chester          N/A     39  16  38 SW6       30.33F WCI  35
Groton         SUNNY     38  22  52 SW12G20   30.35F WCI  30
Wilimantic     SUNNY     41  17  38 W7        30.34F

 IN RI

CITY           SKY/WX    TMP DP  RH WIND       PRES   REMARKS
Providence     PTSUNNY   41  14  33 SW9       30.33F
Block Island   NOT AVBL
Westerly       SUNNY     38  20  48 SW14      30.36F WCI  30
 IN MA

CITY           SKY/WX    TMP DP  RH WIND       PRES   REMARKS
Boston         MOSUNNY   41  16  36 SW15      30.29F
Worcester      SUNNY     35  14  42 W18       30.26F WCI  24
Westfield      SUNNY     42  15  33 VRB7      30.30F
Provincetown   SUNNY     40  25  55 SW18      30.31F WCI  31
Nantucket      MOSUNNY   42  27  55 W17       30.34F
$$

ANZ330-335-338-340-345-350-353-355-162000-
COASTAL MARINE OBSERVATIONS


STATION/POSITION TIME  SKY/WX   TEMP    WIND        PRES    VSBY  WAVE
                                AIR SEA DIR/SP/G                  HT/PER
                 (UTC)          (F)     (DEG/KT/KT) (MB)    (MI)  (FT/S)
NY HARB ENTRANCE 1750            37 44  250/  4/  4 1029.9          1/11
20 S FIRE ISLAND 1750            37 45  300/  6/  8 1029.9          2/11
GREAT SOUTH BAY  NOT AVBL
23 SSW MONTAUK P 1750            39 48  250/ 12/ 16 1029.8          2/11
15 E BARNEGAT LI 1830               46                N/A           2/11
HUDSON CANYON    1750            45 53              1029.8          2/10
KINGS POINT      1830            40 38              1028.6
EXECUTION ROCKS  1845            41     200/  6/ 10   N/A
CENTRAL LI SOUND 1815            35     260/ 10/ 12   N/A           0
EASTERN LI SOUND NOT AVBL
ROBBINS REEF     1830            40     250/  5/  6 1029.2
$$


>>>>>>>>>>>>>>>>>>>>>>>>>>>> KEY <<<<<<<<<<<<<<<<<<<<<<<<<<<
>                                                          <
>     SKY/WX - Sky Condition/Present Weather               <
>     TMP    - Temperature in Fahrenheit                   <
>     DP     - Dew Point in Fahrenheit                     <
>     RH     - Relative Humidity in Percent                <
>     WIND   - Direction (from) and Speed in MPH           <
>     PRES   - Mean Sea Level Pressure (inches of Hg)      <
>     WCI    - Wind Chill Index                            <
>     VSB    - VISIBILITY IN MILES                         <
>     HX     - HEAT INDEX                                  <
>     TC     - TEMPERATURE IN CELSIUS                      <
>     VRB    - VARIABLE WIND DIRECTION                     <
>                                                          <
>>>>>>>>>>>>>>>>>>>>>>>>>>>> KEY <<<<<<<<<<<<<<<<<<<<<<<<<<<




USA.gov is the U.S. government's official web portal to all federal, state and local government web resources and services.